Location: Auriolles
(44.4363°N, 4.3189°E)
Time: 08:17:01
(UTC+00:00)

Daily predictions for brighter satellites

Satellite Brightness Start Highest point End
(mag) Time Altitude Azimuth Time Altitude Azimuth Time Altitude Azimuth
Cosmos 2333 4.2 17:00:53 10° NNW 17:06:39 78° ENE 17:12:19 10° SSE
Starlink D 2.7 17:04:34 10° SW 17:07:28 77° SE 17:10:24 10° ENE
Cosmos 2322 3.8 17:02:43 10° NNW 17:08:26 89° ENE 17:14:06 10° SSE
Starlink S 2.7 17:05:53 10° SW 17:08:47 79° SE 17:11:43 10° ENE
Cosmos 1626 2.9 17:06:12 10° SSE 17:09:32 32° E 17:12:52 10° NNE
Starlink C 2.7 17:07:08 10° SW 17:10:03 82° SE 17:12:59 10° ENE
Starlink E 2.7 17:08:28 10° SW 17:11:24 84° SE 17:14:19 10° ENE
Starlink J 2.7 17:09:47 10° SW 17:12:43 86° SSE 17:15:37 10° ENE
Starlink V 2.7 17:11:05 10° SW 17:14:01 89° SE 17:16:53 11° ENE
Cosmos 1242 Rocket 2.8 17:10:58 10° SSE 17:14:18 43° E 17:17:40 10° NNE
YAOGAN 6 3.2 17:11:35 10° SE 17:14:58 35° ENE 17:18:21 10° N
CORIOLIS 4.1 17:09:43 10° SSE 17:15:06 83° ENE 17:20:30 10° NNW
Starlink H 2.7 17:12:26 10° SW 17:15:22 89° NNW 17:18:10 11° NE
Cosmos 1607 4.0 17:10:17 10° SSW 17:16:20 68° ESE 17:22:27 10° NE
NOAA 12 4.1 17:11:26 10° SSE 17:16:37 69° ENE 17:21:49 10° N
Starlink F 2.7 17:13:46 10° WSW 17:16:42 86° NW 17:19:28 11° NE
Cosmos 2297 Rocket 3.7 17:13:22 10° SE 17:16:52 17° E 17:20:24 10° ENE
Cosmos 1980 4.5 17:12:24 10° N 17:17:21 30° NE 17:22:18 10° ESE
Starlink G 2.7 17:15:06 10° WSW 17:18:02 84° NNW 17:20:45 12° NE
SMAP 3.3 17:13:44 10° S 17:18:23 76° WSW 17:23:03 10° NNW
Starlink L 2.7 17:16:26 10° WSW 17:19:22 82° NW 17:22:02 12° NE
IRS-1C Rocket 4.3 17:14:23 10° SSE 17:19:38 79° WSW 17:24:55 10° NNW
H-2A R/B 3.3 17:16:07 10° S 17:19:54 65° W 17:23:46 10° NNW
Starlink A 2.7 17:17:47 10° WSW 17:20:43 79° NNW 17:23:20 12° NE
SJ 16-02 3.5 17:17:24 10° WSW 17:20:59 24° WNW 17:24:34 10° N
Starlink R 2.7 17:19:08 10° WSW 17:22:04 77° NNW 17:24:38 13° NE
Cosmos 2360 Rocket 3.7 17:17:09 10° NW 17:22:25 41° WSW 17:27:39 10° S
Starlink K 2.8 17:20:27 10° WSW 17:23:23 75° NNW 17:25:55 13° NE
Starlink M 2.8 17:21:45 10° WSW 17:24:40 73° NW 17:27:09 14° NE
Cosmos 2150 Rocket 4.0 17:20:23 10° SSW 17:25:33 89° ESE 17:30:44 10° NNE
Cosmos 2227 Rocket 3.5 17:24:49 10° SE 17:28:44 19° E 17:31:47 13° ENE
CZ-4 R/B 2.0 17:25:09 10° SE 17:28:47 34° ENE 17:32:31 10° N
COSMOS 2428 2.7 17:23:19 10° NNW 17:29:06 77° ENE 17:34:50 10° SSE
Cosmos 2219 Rocket 2.2 17:25:11 10° NNW 17:30:55 82° ENE 17:36:35 10° SSE
SKYMED 2 3.9 17:28:44 10° NNE 17:32:56 46° E 17:37:07 10° S
USA 234 4.2 17:27:35 10° SSE 17:33:54 51° SW 17:40:14 10° WNW
Cosmos 2184 Rocket 4.1 17:28:18 10° S 17:34:29 80° W 17:40:41 10° N
Cosmos 2154 Rocket 4.0 17:36:03 10° S 17:42:18 76° E 17:48:34 10° N
Cosmos 1125 Rocket 3.4 17:39:31 10° SSW 17:44:42 75° ESE 17:49:55 10° NNE
Cosmos 1812 Rocket 3.5 17:41:37 10° N 17:46:06 69° E 17:50:32 10° SSE
ATLAS 5 CENTAUR R/B 4.4 17:43:50 10° N 17:47:03 19° NE 17:49:39 16° ENE
USA 116 3.9 17:50:27 25° ENE 17:51:31 31° E 17:54:21 10° SSE
YAOGAN 1 2.7 17:49:05 10° SSE 17:53:16 51° ENE 17:57:29 10° N
Envisat 3.7 17:52:14 10° S 17:57:13 57° W 18:02:14 10° NNW
Cosmos 1269 Rocket 4.0 17:56:09 10° NNW 18:01:24 60° ENE 18:06:36 10° SSE
CSL-04 Debris 4.1 18:00:27 10° SSE 18:05:47 68° ENE 18:11:09 10° N
Cosmos-2242 3.3 18:02:54 10° N 18:07:05 44° ENE 18:11:11 10° SSE
CZ-4C R/B 3.0 18:01:03 10° NW 18:08:22 87° SW 18:16:40 10° SSE
CZ-2D R/B 3.3 18:05:48 10° SSE 18:09:31 53° ENE 18:13:16 10° N
Starlink AQ 4.0 18:09:38 10° W 18:12:14 29° NNW 18:12:43 27° N
Cosmos 2366 rocket 4.3 18:06:39 10° SSE 18:12:24 43° E 18:18:15 10° NNE
Cosmos 1602 Rocket 4.4 18:08:19 10° SSW 18:12:37 52° WNW 18:16:54 10° N
ISS -1.6 18:11:04 10° S 18:12:27 15° SSE 18:12:27 15° SSE
Starlink AR 4.1 18:11:35 10° W 18:13:43 24° NNW 18:13:45 24° NNW
Starlink AS 4.1 18:12:14 10° W 18:14:48 28° NNW 18:15:10 27° N
Meteor 2-10 Rocket 3.8 18:09:44 10° N 18:14:56 45° ENE 18:19:53 10° SSE
Starlink BA 4.1 18:12:27 10° W 18:15:01 28° NNW 18:15:22 27° N
Starlink AU 4.1 18:12:39 10° W 18:15:13 28° NNW 18:15:34 27° N
Starlink AT 4.1 18:12:54 10° W 18:15:28 28° NNW 18:15:48 27° N
Starlink BB 4.1 18:13:07 10° W 18:15:40 28° NNW 18:16:01 27° N
Starlink BC 4.1 18:13:21 10° W 18:15:54 28° NNW 18:16:14 27° N
Starlink BK 4.1 18:13:34 10° W 18:16:07 28° NNW 18:16:26 27° N
Starlink AY 4.1 18:13:48 10° W 18:16:21 28° NNW 18:16:40 27° N
Starlink AW 4.1 18:14:01 10° W 18:16:34 28° NNW 18:16:52 27° N
Starlink BJ 4.1 18:14:12 10° W 18:16:45 28° NNW 18:17:03 27° N
ATLAS CENTAUR R/B 4.5 18:10:56 10° W 18:16:48 50° NNW 18:28:21 18° NE
Starlink AV 4.1 18:14:25 10° W 18:16:58 28° NNW 18:17:15 27° N
Starlink BD 4.1 18:14:39 10° W 18:17:12 28° NNW 18:17:28 27° N
Starlink BE 4.1 18:14:50 10° W 18:17:23 28° NNW 18:17:40 27° N
Starlink BM 4.1 18:15:06 10° W 18:17:38 27° NNW 18:17:54 27° NNW
Cosmos 2333 Rocket 3.6 18:12:31 10° NW 18:17:50 41° WSW 18:23:06 10° S
Starlink AX 4.2 18:15:19 10° W 18:17:51 27° NNW 18:18:06 27° NNW
Starlink BH 4.2 18:15:34 10° W 18:18:06 27° NNW 18:18:20 27° NNW
Starlink AZ 4.2 18:15:47 10° W 18:18:19 27° NNW 18:18:33 27° NNW
Starlink BG 4.2 18:16:01 10° W 18:18:33 27° NNW 18:18:47 27° NNW
Starlink BF 4.2 18:16:14 10° W 18:18:47 27° NNW 18:18:59 27° NNW
Starlink BL 4.2 18:16:22 10° W 18:18:55 27° NNW 18:19:08 27° NNW
Starlink AH 4.2 18:16:39 10° W 18:19:10 27° NNW 18:19:22 27° NNW
Starlink AC 4.2 18:16:52 10° W 18:19:24 27° NNW 18:19:35 27° NNW
Starlink X 4.2 18:17:05 10° W 18:19:37 27° NNW 18:19:47 27° NNW
Starlink AE 4.2 18:17:15 10° W 18:19:48 27° NNW 18:19:58 27° NNW
Cosmos 962 Rocket 4.4 18:13:50 10° S 18:19:56 88° W 18:26:08 10° N
Cosmos 2237 Rocket 2.1 18:14:20 10° NNW 18:19:59 77° ENE 18:25:36 10° SSE
Starlink Z 4.2 18:17:32 10° W 18:20:04 27° NNW 18:20:13 26° NNW
Starlink AK 4.2 18:17:47 10° W 18:20:19 27° NNW 18:20:28 26° NNW
Starlink AL 4.2 18:18:01 10° W 18:20:33 27° NNW 18:20:41 26° NNW
Starlink AD 4.2 18:18:12 10° W 18:20:43 26° NNW 18:20:51 26° NNW
Meteor 1-21 Rocket 4.1 18:15:27 10° S 18:21:00 78° E 18:26:41 10° NNE
COSMO-SKYMED 1 3.3 18:16:49 10° N 18:21:04 53° WNW 18:25:17 10° SSW
Starlink Y 4.2 18:18:41 10° W 18:21:12 26° NNW 18:21:18 26° NNW
Starlink AG 4.3 18:18:54 10° W 18:21:25 26° NNW 18:21:31 26° NNW
Starlink W 4.3 18:19:02 10° W 18:21:33 26° NNW 18:21:40 26° NNW
Starlink AJ 4.3 18:19:19 10° W 18:21:50 26° NNW 18:21:55 26° NNW
Starlink AM 4.3 18:19:44 10° W 18:22:15 26° NNW 18:22:19 26° NNW
Cosmos 1340 Rocket 3.8 18:18:27 10° NNW 18:22:15 47° W 18:26:04 10° S
Starlink AP 4.3 18:19:58 10° W 18:22:29 26° NNW 18:22:32 26° NNW
Starlink AA 4.3 18:20:12 10° W 18:22:42 26° NNW 18:22:45 26° NNW
Starlink AF 4.3 18:20:24 10° W 18:22:55 26° NNW 18:22:57 26° NNW
Starlink AB 4.3 18:20:41 10° W 18:23:11 26° NNW 18:23:13 26° NNW
Starlink AN 4.3 18:20:52 10° W 18:23:22 26° NNW 18:23:23 26° NNW
Cosmos 1953 Rocket 3.7 18:19:30 10° S 18:23:51 53° E 18:25:10 38° NE
ADEOS Rocket 3.4 18:20:51 10° NNE 18:27:08 50° E 18:34:04 10° S
Cosmos 1758 Rocket 3.5 18:24:58 10° S 18:29:17 80° W 18:33:07 13° N
CSL-04 Rocket 3.9 18:30:11 10° S 18:35:38 71° WSW 18:41:11 10° NNW
Cosmos 1727 Rocket 4.1 18:31:05 10° N 18:37:06 50° ENE 18:43:04 10° SSE
ERBS 3.0 18:34:19 10° SW 18:36:50 47° SSW 18:36:50 47° SSW
Cosmos 1939 Rocket 3.0 18:34:26 10° S 18:38:17 69° WSW 18:42:14 10° NNW
Cosmos 1455 4.0 18:35:16 10° N 18:36:37 21° N 18:36:37 21° N
SL-16 R/B 2.5 18:34:30 10° NNW 18:39:50 44° NE 18:39:50 44° NE
Ariane Rocket 2.9 18:37:49 27° SE 18:40:30 61° ENE 18:45:32 10° N
Cosmos 44 4.2 18:36:39 10° S 18:39:35 30° SSE 18:39:35 30° SSE
USA 267 4.4 18:38:38 22° NNE 18:41:31 31° N 18:47:04 10° WNW
H-2A R/B 3.9 18:46:39 16° N 18:46:39 16° N 18:47:48 10° N
Cosmos 2219 3.4 18:37:42 10° SSW 18:43:17 70° WNW 18:46:52 23° NNE
Cosmos 2341 Rocket 4.4 18:38:10 10° SSW 18:44:29 65° W 18:50:50 10° N
ATLAS 5 CENTAUR R/B 4.2 18:44:36 10° NW 18:47:00 14° NNW 18:49:06 11° N
SL-8 R/B 4.3 18:42:51 10° SW 18:46:59 41° SSE 18:46:59 41° SSE
Cosmos 2082 3.8 18:42:15 10° S 18:47:23 51° ESE 18:47:23 51° ESE
SL-8 Rocket 4.1 18:43:53 10° S 18:50:12 79° W 18:56:33 10° N
ATLAS CENTAUR R/B 3.9 18:51:32 10° N 18:51:45 11° N 18:51:45 11° N
Cosmos 1825 Rocket 4.5 18:51:23 10° SSW 18:55:36 47° WNW 18:58:40 17° N
Cosmos 2251 Rocket 4.3 18:52:59 10° NNW 18:56:25 37° N 18:56:25 37° N
Cosmos 2297 Rocket 2.3 18:54:36 10° SSW 19:00:14 73° WNW 19:02:19 40° NNE
DELTA 2 R/B (1) 4.0 18:58:29 10° WSW 19:03:52 50° S 19:04:01 50° SSE
CZ-4 R/B 4.0 19:00:53 10° SW 19:03:55 20° W 19:07:00 10° NW
NOSS 2-1 (C) 4.5 19:03:27 10° NW 19:08:57 82° SW 19:11:34 42° SSE
Cosmos 2227 Rocket 2.5 19:06:36 10° SW 19:12:13 65° WNW 19:13:40 47° N
SL-08 R/B 4.4 19:10:15 10° S 19:16:31 89° W 19:19:31 34° N
Atlas Centaur 2 4.4 19:23:13 10° SSW 19:24:53 14° S 19:24:53 14° S
FALCON 9 R/B 4.4 19:24:31 10° SW 19:32:54 21° S 19:33:11 21° S
SL-16 R/B 4.2 20:19:00 10° NW 20:21:47 23° WNW 20:21:47 23° WNW
